Weather History for KARA - October, 2013

Change the Weather History Date:

Monday, October 21, 2013

  Actual Average Record
Temperature  
Mean Temperature 66 °F 68 °F  
Max Temperature 73 °F 80 °F 90 °F (2004)
Min Temperature 59 °F 57 °F 34 °F (1952)
Degree Days  
Heating Degree Days 0 1  
Month to date heating degree days 0 10  
Since 1 July heating degree days 0 11  
Cooling Degree Days 1 5  
Month to date cooling degree days 213 148  
Year to date cooling degree days 3091 2704  
Growing Degree Days 16 (Base 50)    
Moisture  
Dew Point 61 °F    
Average Humidity 82    
Maximum Humidity 90    
Minimum Humidity 73    
Precipitation  
Precipitation T in 0.17 in 1.75 in (1993)
Month to date precipitation 3.40 4.00  
Year to date precipitation 60.49 49.48  
Sea Level Pressure  
Sea Level Pressure 30.00 in    
Wind  
Wind Speed 4 mph (ENE)    
Max Wind Speed 16 mph    
Max Gust Speed 25 mph    
Visibility 9 miles    
Events Rain    
T = Trace of Precipitation, MM = Missing Value Source: NWS Daily Summary

Daily Weather History Graph

Daily Weather History Graph

Search for Another Location

Airport or City:

Trip Planner

Search our weather history database for the weather conditions in past years. The results will help you decide how hot, cold, wet, or windy it might be!

Date:

Astronomy

Oct. 21, 2013 Rise Set
Actual Time 7:13 AM CDT 6:30 PM CDT
Civil Twilight 6:49 AM CDT 6:54 PM CDT
Nautical Twilight 6:21 AM CDT 7:22 PM CDT
Astronomical Twilight 5:53 AM CDT 7:50 PM CDT
Moon 8:33 PM CDT (10/21) 9:39 AM CDT (10/21)
Length of Visible Light 12h 05m
Length of Day
11h 16m
Waning Gibbous, 92% of the Moon is Illuminated
Oct 21
Waning Gibbous
Oct 26
Last Quarter
Nov 3
New
Nov 9
First Quarter
Nov 17
Full

Hourly Weather History & Observations

Time (CDT) Temp. Dew Point Humidity Pressure Visibility Wind Dir Wind Speed Gust Speed Precip Events Conditions
12:53 AM 61.0 °F 55.9 °F 83% 30.02 in 10.0 mi Calm Calm - N/A   Mostly Cloudy
1:53 AM 64.0 °F 57.9 °F 80% 30.01 in 10.0 mi East 5.8 mph - N/A   Mostly Cloudy
2:53 AM 62.1 °F 57.0 °F 84% 30.01 in 10.0 mi East 3.5 mph - N/A   Scattered Clouds
3:53 AM 61.0 °F 57.0 °F 87% 30.01 in 10.0 mi Calm Calm - N/A   Partly Cloudy
4:53 AM 61.0 °F 57.9 °F 90% 30.01 in 8.0 mi Calm Calm - N/A   Scattered Clouds
5:53 AM 60.1 °F 55.9 °F 86% 30.01 in 9.0 mi Calm Calm - N/A   Scattered Clouds
6:53 AM 61.0 °F 55.9 °F 83% 30.01 in 10.0 mi Calm Calm - N/A   Scattered Clouds
7:53 AM 61.0 °F 57.0 °F 87% 30.02 in 8.0 mi Calm Calm - N/A   Scattered Clouds
8:53 AM 64.0 °F 57.9 °F 80% 30.02 in 10.0 mi East 6.9 mph - N/A   Clear
9:53 AM 66.9 °F 59.0 °F 76% 30.04 in 9.0 mi East 5.8 mph - N/A   Mostly Cloudy
10:53 AM 69.1 °F 60.1 °F 73% 30.05 in 7.0 mi East 6.9 mph - N/A   Clear
11:53 AM 70.0 °F 62.1 °F 76% 30.06 in 6.0 mi NE 3.5 mph - 0.00 in Rain Light Rain
12:53 PM 70.0 °F 63.0 °F 78% 30.03 in 10.0 mi ENE 5.8 mph - 0.00 in   Clear
1:53 PM 72.0 °F 64.0 °F 76% 30.01 in 10.0 mi ENE 5.8 mph - N/A   Clear
2:53 PM 73.0 °F 64.0 °F 73% 30.00 in 10.0 mi East 5.8 mph - N/A   Scattered Clouds
3:53 PM 73.0 °F 64.0 °F 73% 29.98 in 10.0 mi East 5.8 mph - N/A   Overcast
4:53 PM 71.1 °F 64.9 °F 81% 29.95 in 10.0 mi East 8.1 mph - 0.00 in   Mostly Cloudy
5:53 PM 71.1 °F 64.9 °F 81% 29.94 in 7.0 mi NE 3.5 mph - 0.00 in   Partly Cloudy
6:53 PM 70.0 °F 64.9 °F 84% 29.97 in 8.0 mi North 4.6 mph - N/A   Partly Cloudy
7:15 PM 69.8 °F 64.4 °F 83% 29.97 in 8.0 mi NNE 5.8 mph - N/A   Mostly Cloudy
7:25 PM 69.8 °F 64.4 °F 83% 29.98 in 8.0 mi North 5.8 mph - N/A   Scattered Clouds
7:53 PM 68.0 °F 64.0 °F 87% 29.98 in 8.0 mi NE 5.8 mph - N/A   Clear
8:53 PM 68.0 °F 63.0 °F 84% 30.00 in 8.0 mi East 4.6 mph - N/A   Clear
9:53 PM 68.0 °F 63.0 °F 84% 30.00 in 9.0 mi ENE 5.8 mph - N/A   Mostly Cloudy
10:53 PM 66.9 °F 63.0 °F 87% 30.00 in 9.0 mi ENE 4.6 mph - N/A   Mostly Cloudy
11:53 PM 66.9 °F 62.1 °F 84% 30.00 in 7.0 mi NE 5.8 mph - N/A   Clear